Regional Weather Roundup
Issued by NWS

Home | Current Version | Previous Version | Text Only | Print | Product List | Glossary Off
Versions: 1 2 3 4 5 6 7 8 9 10 11 12 13 14 15 16 17 18 19 20 21 22 23 24 25 26 27 28 29 30 31 32 33 34 35 36 37 38 39 40 41 42 43 44 45 46 47 48 49 50

000
ASUS43 KOAX 160310
RWRNE

WEATHER ROUNDUP FOR NEBRASKA
NATIONAL WEATHER SERVICE OMAHA NE
1000 PM CDT TUE APR 15 2014

NOTES: SATELLITE DATA IS BEING USED TO AUGMENT CLOUD COVER ABOVE
       12000 FEET.
       "FAIR" INDICATES FEW OR NO CLOUDS BELOW 12,000 FEET WITH NO
       SIGNIFICANT WEATHER AND/OR OBSTRUCTIONS TO VISIBILITY.

  * THESE STATIONS DO NOT REPORT WEATHER SUCH AS RAIN...SNOW OR FOG.

NEZ001>004-019>022-054>056-160400-
NEBRASKA PANHANDLE

CITY           SKY/WX    TMP DP  RH WIND       PRES   REMARKS
SCOTTSBLUFF    CLOUDY    62  21  20 W18G32    29.61R
ALLIANCE       CLOUDY    45  31  58 S8        29.60S
CHADRON        CLOUDY    51  32  48 VRB3      29.56R
KIMBALL        CLOUDY    47  26  43 SW8       29.67R
SIDNEY         CLOUDY    49  28  44 S10       29.67S
$$

NEZ057>060-069>072-079>082-160400-
SOUTHWEST NEBRASKA

CITY           SKY/WX    TMP DP  RH WIND       PRES   REMARKS
NORTH PLATTE   PTCLDY    53  24  32 S12       29.66R
IMPERIAL       CLEAR     50  25  37 S9        29.68R
LEXINGTON      PTCLDY    53  31  42 S18       29.69S
MCCOOK         CLEAR     52  28  39 S14       29.71R
OGALLALA       CLOUDY    54  25  32 SW10      29.65S
$$

NEZ005>010-023>029-035>040-094-160400-
NORTH CENTRAL NEBRASKA

CITY           SKY/WX    TMP DP  RH WIND       PRES   REMARKS
VALENTINE      CLOUDY    53  31  42 E3        29.57F
AINSWORTH      CLOUDY    52  31  44 S7        29.61R
BROKEN BOW     PTCLDY    51  31  46 S16G24    29.67R
O`NEILL        CLOUDY    50  29  44 SE10      29.66S
ORD            MOCLDY    52  30  43 S14       29.67R
THEDFORD       MOCLDY    58  23  25 S8        29.63R
$$

NEZ041-046>049-061>064-073>077-083>087-160400-
SOUTH CENTRAL NEBRASKA

CITY           SKY/WX    TMP DP  RH WIND       PRES   REMARKS
GRAND ISLAND   PTCLDY    50  29  44 S15       29.75R
AURORA         CLEAR     50  28  41 S15G21    29.76S
HASTINGS       CLEAR     53  26  35 S14G23    29.75R
HEBRON         PTCLDY    54  20  26 S15G22    29.82R
HOLDREGE       CLEAR     51  28  41 S13       29.74R
KEARNEY *      CLEAR     48  30  49 S14       29.73R
YORK           PTCLDY    50  27  40 S20       29.78S
$$

NEZ011>018-030>034-042>045-160400-
NORTHEAST NEBRASKA

CITY           SKY/WX    TMP DP  RH WIND       PRES   REMARKS
NORFOLK        PTCLDY    46  28  49 SE15      29.74S
ALBION         MOCLDY    50  29  43 SE10      29.72S
BLAIR          PTCLDY    47  28  48 SE16G22   29.85S
COLUMBUS *     PTCLDY    48  27  43 SE14G22   29.77F
FREMONT        CLEAR     48  29  48 SE17G23   29.83S
TEKAMAH        CLEAR     44  30  57 SE21      29.84F
$$

NEZ050>053-065>068-078-088>093-160400-
SOUTHEAST NEBRASKA

CITY           SKY/WX    TMP DP  RH WIND       PRES   REMARKS
LINCOLN        MOCLDY    52  23  32 S16       29.83F
OMAHA EPPLEY   PTCLDY    47  29  49 SE21      29.87S
BEATRICE       CLOUDY    53  23  30 S16G23    29.85S
FALLS CITY     MOCLDY    48  32  53 S15       29.94S
NEBRASKA CITY  CLOUDY    48  29  47 S20G26    29.90S
PLATTSMOUTH    MOCLDY    48  27  44 SE22G28   29.88F
$$

NEZ044-045-051>053-067-160400-
OMAHA AREA

CITY           SKY/WX    TMP DP  RH WIND       PRES   REMARKS
OMAHA EPPLEY   PTCLDY    47  29  49 SE21      29.87S
BLAIR          PTCLDY    47  28  48 SE16G22   29.85S
FREMONT        CLEAR     48  29  48 SE17G23   29.83S
MILLARD        PTCLDY    47  29  49 SE13G18   29.87S
OFFUTT AFB     PTCLDY    46  31  56 SE14      29.88S
PLATTSMOUTH    MOCLDY    48  27  44 SE22G28   29.88F
WAHOO          FAIR      46  30  54 SE17      29.83S
$$



USA.gov is the U.S. government's official web portal to all federal, state and local government web resources and services.